Starlink 11665

operational
NORAD ID: 63549 Int'l Des: 2025-075 Owner: SPXS Country: US Constellation: starlink
LEOCIRCULAR

关于 Starlink 11665

正在加载描述...

实时位置

正在加载3D地球...

即将过境

高度历史

Altitude vs Time

uPlot chart will show altitude changes over time

两行轨道根数

1 63549U 25075B 25311.95566284 .00233620 00000-0 17620-2 0 9997
2 63549 43.0057 167.5226 0004840 270.8047 89.2266 15.70985290 34108
Epoch: Nov 7, 2025 • Age: 44 hours

当前状态

高度 352.9 km
速度 7.70 km/s
星下点 -3.02°S, 176.65°E
发射日期 Apr 13, 2025
运行时间 0.5 years
类型 internet

技术详情

分类 Payload
质量 960.00 kg
干质量 910.00 kg
总质量 960.00 kg
长度 0.30 m
直径 4.10 m
跨度 29.00 m
形状 Box + pan
制造商 SPXS
平台类型 Starlink V2MD
阶段状态 In Orbit
所有者/国家 SPXS/US

大型星座

Loading constellations...